Home   Weather   Sultanpur   Past weeks

Flag for India Past Weather in Sultanpur, Uttar Pradesh, India — Yesterday and Last 2 Weeks

Now
57 °F

Fog.


Feels Like: 57 °F
Forecast: 51 / 73 °F
Wind: No wind

Location: Lucknow / Amausi

Current Time: Dec 9, 2016 at 7:21:22 pm

Latest Report: Dec 9, 2016 at 7:00 pm


Visibility: 1 mi

Pressure: 29.92 "Hg

Humidity: 88%

Dew Point: 54 °F

Location of SultanpurLocation

Past Weather in Sultanpur — Graph

°F

Sultanpur Temperature Yesterday

Maximum temperature yesterday: 63 °F (at 3:00 pm)
Minimum temperature yesterday: 54 °F (at 4:00 am)
Average temperature yesterday: 56 °F

High & Low Weather Summary for the Past Weeks

 TemperatureHumidityPressure
High84 °F (Nov 25, 2:00 pm)100% (Nov 27, 5:00 am)30.18 "Hg (Nov 27, 5:00 am)
Low50 °F (Dec 5, 2:00 am)30% (Nov 25, 1:30 pm)29.71 "Hg (Dec 2, 8:00 pm)
Average63 °F83%29.98 "Hg
* Reported Nov 24 5:30 pm — Dec 9 6:00 pm, Sultanpur, Weather by CustomWeather, © 2016

Note: Actual official high and low records may vary slightly from our data, if they occured in-between our weather recording intervals... More about our weather records

Advertising

Sultanpur Weather History for the Previous 24 Hours

Scroll right to see more
 ConditionsComfort  
Time TempWeatherWind HumidityBarometerVisibility
6:00 pm
Fri, Dec 9
61 °FHaze.No wind77%29.89 "Hg1 mi
5:30 pm63 °FHaze.No wind73%29.89 "Hg1 mi
5:00 pm66 °FHaze.No wind64%29.89 "Hg1 mi
4:30 pm68 °FHaze.No wind60%29.89 "Hg2 mi
4:00 pm70 °FHaze.No wind57%29.89 "Hg2 mi
3:30 pm70 °FHaze.No wind57%29.89 "Hg2 mi
3:00 pm68 °FHaze.No wind56%29.89 "Hg1 mi
2:30 pm68 °FHaze.No wind56%29.92 "Hg1 mi
2:00 pm66 °FHaze.No wind64%29.92 "Hg1 mi
1:30 pm64 °FHaze.No wind68%29.92 "Hg1 mi
1:00 pm63 °FFog.No wind77%29.95 "Hg1 mi
12:30 pm59 °FFog.No wind88%29.95 "Hg1 mi
12:00 pm57 °FFog.No wind94%29.98 "Hg1 mi
11:30 am54 °FFog.No wind100%29.98 "Hg1 mi
11:00 am52 °FFog.No wind100%30.01 "Hg1 mi
10:30 am52 °FFog.No wind94%30.01 "Hg1 mi
10:00 am50 °FFog.No wind100%30.01 "Hg1 mi
9:30 am50 °FFog.No wind100%30.01 "Hg1 mi
9:00 am50 °FFog.No wind100%30.01 "Hg0 mi
8:30 am50 °FFog.No wind100%29.98 "Hg0 mi
8:00 am52 °FFog.No wind94%29.98 "Hg0 mi
7:30 am50 °FFog.No wind100%29.98 "Hg0 mi
7:00 am52 °FFog.No wind94%29.95 "Hg0 mi
6:30 am52 °FFog.No wind100%29.95 "Hg0 mi
6:00 am52 °FFog.No wind100%29.95 "Hg0 mi
5:30 am52 °FFog.No wind100%29.92 "Hg0 mi
5:00 am52 °FFog.No wind100%29.92 "Hg0 mi
4:00 am52 °FFog.No wind100%29.92 "Hg0 mi
3:00 am52 °FFog.No wind100%29.95 "Hg0 mi
2:00 am52 °FFog.No wind100%29.95 "Hg0 mi
1:00 am54 °FFog.No wind100%29.98 "Hg0 mi
12:00 am54 °FFog.No wind100%29.98 "Hg0 mi
11:00 pm
Thu, Dec 8
55 °FFog.No wind100%30.01 "Hg0 mi
10:00 pm55 °FFog.No wind100%30.01 "Hg0 mi
9:00 pm55 °FFog.No wind100%30.01 "Hg1 mi
8:30 pm55 °FFog.No wind100%30.01 "Hg1 mi
8:00 pm55 °FFog.No wind94%29.98 "Hg1 mi
7:30 pm54 °FFog.No wind100%29.98 "Hg1 mi
7:00 pm54 °FFog.No wind100%29.98 "Hg1 mi
Weather by CustomWeather, © 2016

See weather overviewHow to use our weather pages